Flag for U.S.A. Weather past 2 weeks in West Covina, California, U.S.A.

Now
71 °F

Overcast.


Feels Like: 70 °F
Forecast: 69 / 88 °F
Wind: 3 mph from South

Location: Fullerton Municipal Airport

Current Time: Jul 31, 2015 at 4:42:16 AM

Latest Report: Jul 31, 2015 at 3:53 AM


Visibility: 10 mi

Pressure: 29.99 "Hg

Humidity: 84%

Dew point: 66 °F

Location of West CovinaLocation

Historic Weather in West Covina — Graph

°F

West Covina temperature yesterday

Maximum temperature yesterday: 86 °F (at 12:53 PM)
Minimum temperature yesterday: 71 °F (at 2:53 AM)
Average temperature yesterday: 77 °F

Past Weeks' High & Low Weather Summary

 TemperatureHumidityPressure
High90 °F (Jul 19, 10:53 AM)91% (Jul 18, 8:53 PM)30.07 "Hg (Jul 18, 8:53 PM)
Low66 °F (Jul 17, 4:53 AM)30% (Jul 18, 11:53 AM)29.77 "Hg (Jul 17, 4:53 PM)
Average76 °F68%29.92 "Hg
* Reported Jul 16 2:53 AM — Jul 31 2:53 AM, West Covina, Weather by CustomWeather, © 2015

Note: Actual official high and low records may vary slightly from our data, if they occured in-between our weather recording intervals... More about our weather records

Advertising

West Covina weather history for previous 24 hours

 ConditionsComfort  
Time TempWeatherWind HumidityBarometerVisibility
2:53 AM
Fri, Jul 31
71 °FOvercast.5 mph84%29.99 "Hg10 mi
1:53 AM71 °FClear.3 mph81%29.99 "Hg10 mi
12:53 AM72 °FClear.3 mph81%30.01 "Hg10 mi
11:53 PM
Thu, Jul 30
73 °FClear.5 mph79%30.02 "Hg10 mi
10:53 PM74 °FClear.6 mph74%30.01 "Hg10 mi
9:53 PM74 °FClear.5 mph74%30.00 "Hg10 mi
8:53 PM74 °FSunny.6 mph74%29.97 "Hg10 mi
7:53 PM75 °FPassing clouds.6 mph74%29.96 "Hg10 mi
6:53 PM79 °FPassing clouds.7 mph65%29.95 "Hg10 mi
5:53 PM81 °FSunny.9 mph60%29.94 "Hg10 mi
4:53 PM84 °FSunny.6 mph55%29.93 "Hg10 mi
3:53 PM84 °FSunny.10 mph53%29.93 "Hg10 mi
2:53 PM85 °FSunny.10 mph51%29.95 "Hg10 mi
1:53 PM86 °FSunny.9 mph51%29.96 "Hg10 mi
12:53 PM86 °FSunny.8 mph51%29.96 "Hg10 mi
11:53 AM84 °FSunny.6 mph55%29.98 "Hg10 mi
10:53 AM81 °FSunny.No wind58%29.99 "Hg8 mi
9:53 AM77 °FSunny.5 mph66%29.99 "Hg7 mi
8:53 AM76 °FSunny.3 mph67%29.99 "Hg8 mi
7:53 AM73 °FScattered clouds.No wind74%29.99 "Hg6 mi
6:53 AM72 °FPassing clouds.3 mph76%29.96 "Hg8 mi
5:53 AM71 °FClear.3 mph76%29.95 "Hg10 mi
4:53 AM71 °FClear.No wind78%29.95 "Hg10 mi
Weather by CustomWeather, © 2015

See weather overviewHow to use our weather pages